When you browse on this site, cookies collect data to enhance your experience and personalize the content and advertising you see.
Visit our Privacy Policy to learn more. By continuing to use the site, you agree to this use of cookies and data.
  • In United Kingdom
  • List of Countries
  • For 7 days
  • Water Temperature
  • Satellite Maps
  • Weather Map
  • Weather Widgets
  • user-avatar
    Login

    Hourly Weather Narni

    Today, 20 May, Monday

    Time Temperature Precipitation Wind Pressure Humidity
    00:00 +10°C° 0.1 mm 2 mps 738 mmHg 96%
    01:00 +10°C° 0 mm 2 mps 738 mmHg 97%
    02:00 +10°C° 0.4 mm 2 mps 738 mmHg 97%
    03:00 +10°C° 0.4 mm 2 mps 738 mmHg 96%
    04:00 +9°C° 0.4 mm 2 mps 738 mmHg 96%
    05:00 +10°C° 0.3 mm 2 mps 738 mmHg 94%
    06:00 +11°C° 0.3 mm 3 mps 738 mmHg 92%
    07:00 +12°C° 0.3 mm 3 mps 739 mmHg 90%
    08:00 +13°C° 0.4 mm 4 mps 739 mmHg 85%
    09:00 +14°C° 0.4 mm 4 mps 739 mmHg 81%
    10:00 +17°C° 0.4 mm 4 mps 739 mmHg 76%
    11:00 +17°C° 0.8 mm 4 mps 739 mmHg 77%
    12:00 +17°C° 0.8 mm 4 mps 739 mmHg 77%
    13:00 +17°C° 0.8 mm 4 mps 740 mmHg 77%
    14:00 +17°C° 0.5 mm 4 mps 740 mmHg 75%
    15:00 +17°C° 0.5 mm 4 mps 739 mmHg 73%
    16:00 +18°C° 0.5 mm 4 mps 739 mmHg 71%
    17:00 +16°C° 0.2 mm 3 mps 739 mmHg 76%
    18:00 +14°C° 0.2 mm 3 mps 739 mmHg 81%
    19:00 +13°C° 0.2 mm 3 mps 739 mmHg 86%
    20:00 +13°C° 0.1 mm 3 mps 740 mmHg 89%
    21:00 +12°C° 0.1 mm 3 mps 740 mmHg 91%
    22:00 +12°C° 0.1 mm 3 mps 740 mmHg 94%
    23:00 +12°C° 0 mm 3 mps 740 mmHg 94%

    Tomorrow, 21 May, Tuesday

    Time Temperature Precipitation Wind Pressure Humidity
    00:00 +12°C° 0 mm 3 mps 741 mmHg 95%
    01:00 +12°C° 0 mm 3 mps 741 mmHg 96%
    02:00 +12°C° 0.1 mm 3 mps 741 mmHg 96%
    03:00 +12°C° 0.1 mm 3 mps 741 mmHg 97%
    04:00 +12°C° 0.1 mm 3 mps 741 mmHg 97%
    05:00 +12°C° 0.1 mm 3 mps 741 mmHg 96%
    06:00 +13°C° 0.1 mm 3 mps 741 mmHg 96%
    07:00 +13°C° 0.1 mm 3 mps 741 mmHg 95%
    08:00 +14°C° 0.3 mm 3 mps 742 mmHg 93%
    09:00 +15°C° 0.3 mm 4 mps 742 mmHg 91%
    10:00 +15°C° 0.3 mm 4 mps 742 mmHg 89%
    11:00 +17°C° 0.6 mm 4 mps 743 mmHg 88%
    12:00 +16°C° 0.6 mm 5 mps 743 mmHg 88%
    13:00 +16°C° 0.6 mm 5 mps 743 mmHg 88%
    14:00 +17°C° 0.3 mm 4 mps 743 mmHg 86%
    15:00 +17°C° 0.3 mm 4 mps 743 mmHg 85%
    16:00 +17°C° 0.3 mm 4 mps 743 mmHg 83%
    17:00 +17°C° 0.1 mm 3 mps 743 mmHg 83%
    18:00 +16°C° 0.1 mm 3 mps 743 mmHg 83%
    19:00 +16°C° 0.1 mm 3 mps 744 mmHg 83%
    20:00 +15°C° 0 mm 2 mps 744 mmHg 84%
    21:00 +14°C° 0 mm 2 mps 744 mmHg 86%
    22:00 +13°C° 0 mm 2 mps 745 mmHg 88%
    23:00 +12°C° 0 mm 2 mps 745 mmHg 88%

    Day after tomorrow, 22 May, Wednesday

    Time Temperature Precipitation Wind Pressure Humidity
    00:00 +12°C° 0 mm 2 mps 745 mmHg 89%
    01:00 +10°C° 0 mm 2 mps 745 mmHg 89%
    02:00 +10°C° 0 mm 2 mps 745 mmHg 89%
    03:00 +10°C° 0 mm 2 mps 745 mmHg 88%
    04:00 +9°C° 0 mm 2 mps 745 mmHg 88%
    05:00 +12°C° 0 mm 2 mps 745 mmHg 83%
    06:00 +14°C° 0 mm 2 mps 745 mmHg 78%
    07:00 +15°C° 0 mm 2 mps 745 mmHg 73%
    08:00 +17°C° 0 mm 2 mps 746 mmHg 68%
    09:00 +19°C° 0 mm 2 mps 746 mmHg 62%
    10:00 +21°C° 0 mm 2 mps 746 mmHg 56%
    11:00 +21°C° 0.1 mm 3 mps 746 mmHg 55%
    12:00 +22°C° 0.1 mm 3 mps 746 mmHg 54%
    13:00 +24°C° 0.1 mm 3 mps 746 mmHg 53%
    14:00 +22°C° 0.1 mm 3 mps 746 mmHg 55%
    15:00 +22°C° 0.1 mm 3 mps 746 mmHg 57%
    16:00 +22°C° 0.1 mm 3 mps 745 mmHg 59%
    17:00 +20°C° 0 mm 3 mps 745 mmHg 67%
    18:00 +18°C° 0 mm 2 mps 745 mmHg 75%
    19:00 +18°C° 0 mm 1 mps 745 mmHg 83%
    20:00 +15°C° 0 mm 1 mps 746 mmHg 86%
    21:00 +14°C° 0 mm 1 mps 746 mmHg 90%
    22:00 +13°C° 0 mm 1 mps 746 mmHg 94%
    23:00 +12°C° 0 mm 1 mps 746 mmHg 94%

    23 May, Thursday

    Time Temperature Precipitation Wind Pressure Humidity
    00:00 +12°C° 0 mm 1 mps 746 mmHg 94%
    01:00 +12°C° 0 mm 1 mps 746 mmHg 94%
    02:00 +11°C° 0 mm 1 mps 746 mmHg 93%
    03:00 +11°C° 0 mm 1 mps 746 mmHg 92%
    04:00 +11°C° 0 mm 1 mps 746 mmHg 92%
    05:00 +12°C° 0 mm 0 mps 746 mmHg 86%
    06:00 +14°C° 0 mm 0 mps 746 mmHg 79%
    07:00 +15°C° 0 mm 0 mps 746 mmHg 73%
    08:00 +17°C° 0 mm 0 mps 746 mmHg 66%
    09:00 +22°C° 0 mm 1 mps 747 mmHg 59%
    10:00 +24°C° 0 mm 1 mps 747 mmHg 51%
    11:00 +24°C° 0.1 mm 1 mps 746 mmHg 50%
    12:00 +25°C° 0.1 mm 2 mps 746 mmHg 50%
    13:00 +25°C° 0.1 mm 2 mps 746 mmHg 49%
    14:00 +25°C° 0.3 mm 2 mps 746 mmHg 53%
    15:00 +24°C° 0.3 mm 2 mps 745 mmHg 58%
    16:00 +24°C° 0.3 mm 2 mps 745 mmHg 62%
    17:00 +21°C° 0.2 mm 2 mps 745 mmHg 70%
    18:00 +21°C° 0.2 mm 1 mps 745 mmHg 79%
    19:00 +19°C° 0.2 mm 1 mps 745 mmHg 87%
    20:00 +18°C° 0 mm 1 mps 745 mmHg 89%
    21:00 +15°C° 0 mm 0 mps 745 mmHg 91%
    22:00 +14°C° 0 mm 0 mps 745 mmHg 94%
    23:00 +14°C° 0 mm 0 mps 745 mmHg 94%

    24 May, Friday

    Time Temperature Precipitation Wind Pressure Humidity
    00:00 +13°C° 0 mm 0 mps 745 mmHg 94%
    01:00 +13°C° 0 mm 0 mps 745 mmHg 95%
    02:00 +13°C° 0 mm 0 mps 744 mmHg 95%
    03:00 +12°C° 0 mm 0 mps 744 mmHg 95%
    04:00 +12°C° 0 mm 0 mps 744 mmHg 95%
    05:00 +13°C° 0 mm 0 mps 744 mmHg 91%
    06:00 +15°C° 0 mm 0 mps 744 mmHg 87%
    07:00 +16°C° 0 mm 0 mps 744 mmHg 82%
    08:00 +20°C° 0 mm 1 mps 744 mmHg 73%
    09:00 +22°C° 0 mm 1 mps 744 mmHg 64%
    10:00 +24°C° 0 mm 1 mps 744 mmHg 56%
    11:00 +25°C° 0 mm 1 mps 744 mmHg 52%
    12:00 +26°C° 0 mm 2 mps 743 mmHg 49%
    13:00 +27°C° 0 mm 2 mps 743 mmHg 46%
    14:00 +26°C° 0.3 mm 2 mps 742 mmHg 53%
    15:00 +25°C° 0.3 mm 3 mps 742 mmHg 60%
    16:00 +24°C° 0.3 mm 3 mps 742 mmHg 66%
    17:00 +22°C° 0.4 mm 3 mps 741 mmHg 73%
    18:00 +20°C° 0.4 mm 2 mps 741 mmHg 79%
    19:00 +18°C° 0.4 mm 2 mps 741 mmHg 85%
    20:00 +17°C° 0 mm 2 mps 740 mmHg 87%
    21:00 +16°C° 0 mm 2 mps 740 mmHg 90%
    22:00 +15°C° 0 mm 2 mps 740 mmHg 92%
    23:00 +15°C° 0 mm 2 mps 739 mmHg 90%

    25 May, Saturday

    Time Temperature Precipitation Wind Pressure Humidity
    00:00 +14°C° 0 mm 3 mps 739 mmHg 89%
    01:00 +14°C° 0 mm 3 mps 738 mmHg 87%
    02:00 +14°C° 0.2 mm 3 mps 738 mmHg 89%
    03:00 +14°C° 0.2 mm 3 mps 737 mmHg 91%
    04:00 +14°C° 0.2 mm 4 mps 736 mmHg 93%
    05:00 +14°C° 0.6 mm 3 mps 736 mmHg 93%
    06:00 +14°C° 0.6 mm 3 mps 735 mmHg 94%
    07:00 +15°C° 0.6 mm 2 mps 735 mmHg 94%
    08:00 +15°C° 1 mm 2 mps 735 mmHg 94%
    09:00 +15°C° 1 mm 2 mps 735 mmHg 93%
    10:00 +15°C° 1 mm 2 mps 735 mmHg 92%
    11:00 +16°C° 0.3 mm 2 mps 735 mmHg 88%
    12:00 +16°C° 0.3 mm 2 mps 735 mmHg 84%
    13:00 +17°C° 0.3 mm 2 mps 735 mmHg 80%
    14:00 +18°C° 0.2 mm 2 mps 735 mmHg 75%
    15:00 +19°C° 0.2 mm 2 mps 735 mmHg 71%
    16:00 +21°C° 0.2 mm 1 mps 735 mmHg 66%
    17:00 +19°C° 0.6 mm 2 mps 735 mmHg 75%
    18:00 +18°C° 0.6 mm 2 mps 735 mmHg 83%
    19:00 +16°C° 0.6 mm 2 mps 735 mmHg 91%
    20:00 +16°C° 0 mm 2 mps 736 mmHg 93%
    21:00 +15°C° 0 mm 2 mps 736 mmHg 94%
    22:00 +14°C° 0 mm 2 mps 737 mmHg 95%
    23:00 +14°C° 0 mm 2 mps 737 mmHg 95%
    Show more